[[{"header":{"parameterUnit":"m.s-1","parameterCategory":1,"la1":30.2991,"la2":30.254,"lo1":-89.0895,"lo2":-89.0444,"dy":0.0017,"dx":0.0017,"nx":28,"ny":28,"refTime":"2025-07-15T21:00:00:Z","depth":0,"parameterNumber":2,"parameterNumberName":"U-component_of_WINDS"},"data":[0,0,0,0,0,0,0,0,0,0,0,0,0,0,0,0,0,0,0,0,0,0,0,0,0,0,0,0,0,0,0,0,0,0,0,0,0,0,0,0,0,0,0,0,0,0,0,0,0,0,0,0,0,0,0,0,0,0,-2.6877,-2.6877,0,-2.688,-2.688,-2.688,-2.6907,-2.6908,-2.6908,-2.6909,-2.6909,-2.6908,-2.6908,0,0,0,0,0,0,0,0,0,0,0,0,0,-2.689,-2.689,-2.6877,-2.6877,-2.6877,-2.688,-2.688,-2.688,-2.6907,-2.6908,-2.6909,-2.6909,-2.6909,-2.6908,-2.6908,0,0,0,0,0,0,0,0,0,0,0,0,0,-2.6888,-2.689,-2.6877,-2.6891,-2.6892,-2.688,-2.688,-2.688,-2.6907,-2.6908,-2.6909,-2.691,-2.6909,-2.6908,-2.6908,-2.6882,0,0,-2.6905,-2.6904,0,0,0,0,0,0,0,0,-2.6888,-2.6888,-2.6888,-2.689,-2.6891,-2.6894,-2.6885,-2.6881,-2.6907,-2.6901,-2.6909,-2.691,-2.6903,-2.6903,-2.6901,-2.6882,-2.6882,-2.6905,-2.6904,-2.6904,-2.6903,0,0,0,0,0,0,0,-2.6888,-2.6888,-2.6878,-2.6888,-2.689,-2.6896,-2.6897,-2.6884,-2.6896,-2.6902,-2.6904,-2.6904,-2.6904,-2.6902,-2.6901,-2.6882,-2.6905,-2.6904,-2.6903,-2.6903,-2.6841,-2.684,0,0,0,0,0,0,-2.6887,-2.6888,-2.6878,-2.6878,-2.6892,-2.6895,-2.6896,-2.6892,-2.6896,-2.6898,-2.6903,-2.6905,-2.6903,-2.6902,-2.6901,-2.687,-2.6904,-2.6903,-2.6902,-2.6842,-2.6841,-2.6839,0,0,0,0,0,0,-2.6887,-2.6886,-2.6878,-2.6883,-2.6883,-2.6893,-2.6889,-2.6892,-2.689,-2.6898,-2.6899,-2.6899,-2.6904,-2.6903,-2.6886,-2.6871,-2.6902,-2.6901,-2.6843,-2.6842,-2.684,-2.6809,0,0,0,0,0,0,-2.6887,-2.6886,-2.6876,-2.6883,-2.6882,-2.6863,-2.6888,-2.6891,-2.6888,-2.6891,-2.6894,-2.6896,-2.6904,-2.6888,-2.6886,-2.687,-2.6901,-2.6845,-2.6842,-2.6841,-2.6811,-2.6807,-2.6802,0,0,0,0,0,-2.6888,-2.6867,-2.6876,-2.6875,-2.6871,-2.6863,-2.6862,-2.6874,-2.6887,-2.6877,-2.6883,-2.6895,-2.6874,-2.6886,-2.6884,-2.6868,-2.6846,-2.6843,-2.6841,-2.6813,-2.6807,-2.6802,0,0,0,0,0,0,-2.6857,-2.6868,-2.6878,-2.6859,-2.686,-2.6867,-2.6855,-2.6867,-2.6863,-2.6866,-2.688,-2.688,-2.6861,-2.6863,-2.6877,-2.6843,-2.6862,-2.6859,-2.6842,-2.6836,-2.6832,-2.6831,-2.69,0,0,0,0,0,-2.6848,-2.6841,-2.6851,-2.6833,-2.6833,-2.6844,-2.6841,-2.685,-2.6851,-2.6851,-2.6855,-2.6854,-2.6847,-2.6842,-2.6836,-2.6813,-2.6813,-2.6801,-2.6796,-2.6792,-2.6789,-2.6776,-2.677,-2.6831,-2.6832,-2.6832,0,0,-2.6829,-2.6834,-2.6829,-2.6827,-2.6828,-2.682,-2.6844,-2.6834,-2.6827,-2.6849,-2.6834,-2.6837,-2.6838,-2.6817,-2.6809,-2.6818,-2.6773,-2.6789,-2.6786,-2.6785,-2.6773,-2.6767,-2.6762,-2.683,-2.683,-2.683,0,0,-2.6789,-2.6793,-2.6778,-2.678,-2.6783,-2.6791,-2.6788,-2.6794,-2.6797,-2.6783,-2.6799,-2.6791,-2.6779,-2.6779,-2.6777,-2.6739,-2.675,-2.6737,-2.6712,-2.6699,-2.6694,-2.669,-2.6675,-2.667,-2.6734,-2.6734,-2.6734,0,-2.6765,-2.6753,-2.6769,-2.6758,-2.6756,-2.6778,-2.6762,-2.6763,-2.6763,-2.6761,-2.6773,-2.6758,-2.676,-2.674,-2.6731,-2.6729,-2.6725,-2.6735,-2.6694,-2.669,-2.6686,-2.6672,-2.6666,-2.6732,-2.6732,-2.6732,-2.6732,0,-2.6722,-2.6714,-2.6702,-2.6703,-2.67,-2.6687,-2.67,-2.6695,-2.6705,-2.6712,-2.6697,-2.67,-2.6695,-2.6692,-2.6701,-2.6673,-2.6678,-2.6692,-2.6711,-2.6678,-2.6665,-2.666,-2.6729,-2.673,-2.6731,-2.6731,0,0,-2.666,-2.6672,-2.6667,-2.6668,-2.6674,-2.6667,-2.6655,-2.6652,-2.6647,-2.6647,-2.6636,-2.6627,-2.6639,-2.6637,-2.6647,-2.6636,-2.6604,-2.6651,-2.6651,-2.664,-2.6572,-2.656,-2.6554,-2.6613,-2.6612,-2.6611,-2.6572,0,-2.6621,-2.6602,-2.6616,-2.6594,-2.6586,-2.6607,-2.6597,-2.6598,-2.6605,-2.6598,-2.6605,-2.6597,-2.6616,-2.6614,-2.6605,-2.661,-2.659,-2.6614,-2.6601,-2.6601,-2.6598,-2.6547,-2.6535,-2.6497,-2.6567,-2.6566,-2.6565,0,-2.6572,-2.6572,-2.6548,-2.6556,-2.6554,-2.6544,-2.6542,-2.6536,-2.6539,-2.6544,-2.6543,-2.6556,-2.6543,-2.6564,-2.6547,-2.6562,-2.6559,-2.6561,-2.656,-2.6557,-2.6579,-2.6541,-2.6485,-2.6478,-2.6558,-2.6558,-2.6559,0,-2.6527,-2.6521,-2.6506,-2.6506,-2.6516,-2.6508,-2.6511,-2.6515,-2.6513,-2.6511,-2.6509,-2.6506,-2.6503,-2.65,-2.6511,-2.6526,-2.6492,-2.6514,-2.6494,-2.6494,-2.6484,-2.6484,-2.6424,-2.6486,-2.6486,-2.6486,-2.6486,0,-2.648,-2.6465,-2.6486,-2.6477,-2.646,-2.6477,-2.646,-2.6465,-2.6469,-2.646,-2.6479,-2.647,-2.6487,-2.648,-2.6489,-2.6472,-2.6472,-2.6475,-2.6477,-2.6471,-2.6471,-2.6467,-2.6469,-2.6484,-2.6485,-2.6485,-2.6485,0,-2.6426,-2.644,-2.6425,-2.6436,-2.6438,-2.6425,-2.6434,-2.6425,-2.6434,-2.6423,-2.6421,-2.6434,-2.6427,-2.6439,-2.6432,-2.6438,-2.6415,-2.6422,-2.6414,-2.6415,-2.6394,-2.6395,-2.6328,-2.632,-2.6389,-2.6388,-2.6387,0,-2.6394,-2.6383,-2.6393,-2.6389,-2.6392,-2.6386,-2.6383,-2.64,-2.6397,-2.64,-2.639,-2.6385,-2.6382,-2.6369,-2.6377,-2.6372,-2.6378,-2.6355,-2.6377,-2.6372,-2.6375,-2.6375,-2.6373,-2.6349,-2.6349,-2.6348,-2.6347,0,-2.6335,-2.6343,-2.6339,-2.6338,-2.6335,-2.6335,-2.6336,-2.6332,-2.635,-2.6345,-2.6338,-2.6336,-2.6331,-2.6324,-2.6322,-2.6325,-2.6338,-2.6341,-2.6336,-2.6329,-2.6324,-2.6324,-2.6399,-2.6342,-2.6342,-2.6343,-2.6343,-2.6343,-2.6289,-2.628,-2.6286,-2.6281,-2.6285,-2.6285,-2.6278,-2.6286,-2.6282,-2.6279,-2.629,-2.6281,-2.6284,-2.6283,-2.6284,-2.6277,-2.6287,-2.628,-2.6277,-2.6275,-2.6271,-2.6328,-2.6277,-2.6277,-2.6277,-2.6277,-2.6277,0,-2.6229,-2.6235,-2.6231,-2.6232,-2.6229,-2.6245,-2.6247,-2.6242,-2.6235,-2.6238,-2.6234,-2.6227,-2.6221,-2.623,-2.6226,-2.6218,-2.6224,-2.6216,-2.6216,-2.6216,-2.6263,-2.6267,-2.6211,-2.6211,-2.6211,-2.6211,-2.6211,-2.6211,-2.6198,-2.6183,-2.6192,-2.6178,-2.6184,-2.6176,-2.6176,-2.6177,-2.6179,-2.617,-2.6166,-2.6173,-2.6178,-2.6174,-2.617,-2.6173,-2.6169,-2.6158,-2.6163,-2.6206,-2.6212,-2.6218,-2.6222,-2.6158,-2.6158,-2.6116,-2.6116,-2.6115]},{"header":{"parameterUnit":"m.s-1","parameterCategory":1,"la1":30.2991,"la2":30.254,"lo1":-89.0895,"lo2":-89.0444,"dy":0.0017,"dx":0.0017,"nx":28,"ny":28,"refTime":"2025-07-15T21:00:00:Z","depth":0,"parameterNumber":3,"parameterNumberName":"V-component_of_WINDS"},"data":[0,0,0,0,0,0,0,0,0,0,0,0,0,0,0,0,0,0,0,0,0,0,0,0,0,0,0,0,0,0,0,0,0,0,0,0,0,0,0,0,0,0,0,0,0,0,0,0,0,0,0,0,0,0,0,0,0,0,2.5693,2.5696,0,2.6045,2.6049,2.6053,2.6214,2.6213,2.6213,2.6213,2.6569,2.6579,2.6589,0,0,0,0,0,0,0,0,0,0,0,0,0,2.5156,2.5165,2.5692,2.5697,2.5701,2.6044,2.6049,2.6054,2.6214,2.6213,2.6213,2.6213,2.6566,2.6578,2.659,0,0,0,0,0,0,0,0,0,0,0,0,0,2.5436,2.5167,2.5692,2.5822,2.5838,2.6043,2.6049,2.6055,2.6214,2.6213,2.6213,2.6212,2.6562,2.6577,2.6591,2.6692,0,0,2.6636,2.6642,0,0,0,0,0,0,0,0,2.542,2.5456,2.5799,2.5814,2.5831,2.6085,2.5991,2.6269,2.6214,2.6071,2.6213,2.6212,2.6408,2.6436,2.6503,2.6709,2.6724,2.6637,2.6646,2.6653,2.6657,0,0,0,0,0,0,0,2.54,2.5441,2.5832,2.5804,2.5823,2.5863,2.5902,2.6044,2.6238,2.6083,2.6096,2.6136,2.6417,2.6488,2.6512,2.6729,2.6637,2.665,2.6659,2.6665,2.7039,2.7041,0,0,0,0,0,0,2.536,2.5424,2.5821,2.5842,2.562,2.5873,2.5917,2.6004,2.6237,2.6272,2.6136,2.6142,2.6463,2.6495,2.6525,2.6662,2.6653,2.6666,2.6675,2.7038,2.704,2.7041,0,0,0,0,0,0,2.5348,2.5394,2.5806,2.5637,2.5693,2.5883,2.5979,2.6011,2.6083,2.6277,2.6312,2.6173,2.6464,2.6505,2.6651,2.6676,2.6673,2.6686,2.7037,2.7039,2.704,2.6933,0,0,0,0,0,0,2.5332,2.5389,2.5429,2.5637,2.5701,2.5926,2.5981,2.6018,2.6108,2.6119,2.6321,2.6354,2.6467,2.6628,2.6665,2.6696,2.6698,2.7036,2.7038,2.704,2.6935,2.693,2.6927,0,0,0,0,0,2.5312,2.5383,2.543,2.5477,2.5756,2.5927,2.5964,2.6094,2.6109,2.6152,2.6277,2.6347,2.6667,2.6641,2.6685,2.6721,2.7035,2.7037,2.704,2.6937,2.6931,2.6927,0,0,0,0,0,0,2.5171,2.5412,2.5468,2.5608,2.5746,2.5954,2.6011,2.6083,2.6219,2.6223,2.6378,2.6422,2.6555,2.6652,2.6619,2.6833,2.6857,2.6869,2.6764,2.6761,2.6757,2.6731,2.671,0,0,0,0,0,2.5156,2.5276,2.548,2.5584,2.5651,2.5819,2.5898,2.5987,2.6135,2.6194,2.633,2.647,2.6603,2.6687,2.682,2.695,2.6997,2.6996,2.6992,2.6988,2.6996,2.7075,2.7078,2.7049,2.7049,2.7049,0,0,2.5127,2.5274,2.534,2.556,2.5677,2.5798,2.5867,2.599,2.6082,2.6213,2.636,2.6464,2.6631,2.677,2.6838,2.6856,2.7014,2.6991,2.6986,2.6997,2.7078,2.708,2.7082,2.7051,2.7051,2.705,0,0,2.5136,2.5258,2.536,2.5477,2.5655,2.5767,2.5791,2.5989,2.6064,2.6215,2.6316,2.6426,2.6651,2.6767,2.6855,2.6911,2.6982,2.695,2.6929,2.7004,2.7006,2.7009,2.7031,2.7037,2.6957,2.6957,2.6957,0,2.5076,2.5263,2.5402,2.5523,2.5617,2.5744,2.5848,2.5954,2.6165,2.6228,2.6245,2.6532,2.6653,2.6822,2.6836,2.6903,2.6936,2.6928,2.6995,2.6999,2.7004,2.7027,2.7034,2.6952,2.6952,2.6953,2.6953,0,2.5183,2.5311,2.5372,2.5575,2.5677,2.5787,2.5944,2.6029,2.611,2.6219,2.6372,2.6522,2.6689,2.6736,2.6814,2.6917,2.6923,2.6965,2.6993,2.6999,2.7024,2.7033,2.6945,2.6947,2.6948,2.6949,0,0,2.5111,2.5393,2.5413,2.5509,2.5715,2.5817,2.5934,2.6099,2.6171,2.6312,2.6416,2.6604,2.6646,2.6746,2.6839,2.6904,2.6942,2.694,2.6946,2.6936,2.7068,2.7036,2.7044,2.699,2.6992,2.6994,2.7055,0,2.515,2.5368,2.5498,2.5663,2.5784,2.5907,2.601,2.6147,2.6253,2.6371,2.6488,2.6621,2.6664,2.6726,2.6796,2.6922,2.6971,2.692,2.7088,2.7093,2.7044,2.7057,2.7023,2.7073,2.7065,2.7067,2.7068,0,2.5224,2.5366,2.5543,2.574,2.5795,2.5885,2.6049,2.616,2.6319,2.6392,2.6505,2.6599,2.6729,2.6746,2.6927,2.689,2.6966,2.7039,2.7044,2.7066,2.7081,2.708,2.7092,2.7099,2.7084,2.7083,2.7081,0,2.5157,2.5392,2.553,2.5607,2.5839,2.59,2.5999,2.6158,2.625,2.6392,2.6454,2.6608,2.6693,2.6811,2.6944,2.6944,2.7113,2.7141,2.7178,2.7175,2.7209,2.7205,2.7234,2.7255,2.7255,2.7254,2.7254,0,2.5187,2.5291,2.5503,2.5587,2.5708,2.5857,2.5972,2.6081,2.6222,2.633,2.6445,2.6544,2.6714,2.6834,2.6939,2.7075,2.7111,2.7174,2.7201,2.7165,2.7157,2.7218,2.7219,2.7257,2.7256,2.7256,2.7255,0,2.5132,2.5278,2.5437,2.5644,2.5699,2.5779,2.5957,2.6044,2.6157,2.6292,2.6333,2.6509,2.6657,2.6802,2.6999,2.7071,2.7205,2.724,2.7152,2.7167,2.7197,2.7193,2.7268,2.7287,2.7291,2.7291,2.7291,0,2.5143,2.5226,2.5444,2.5526,2.5623,2.5752,2.5848,2.5997,2.6092,2.6282,2.6346,2.6503,2.6636,2.6866,2.7012,2.7165,2.7205,2.7221,2.7229,2.7191,2.7208,2.7202,2.7213,2.7217,2.7216,2.7215,2.7215,0,2.5146,2.5215,2.5349,2.5509,2.5621,2.5753,2.589,2.595,2.6126,2.6226,2.638,2.6483,2.6687,2.6842,2.7012,2.7114,2.7194,2.7212,2.7229,2.7193,2.7139,2.7171,2.7143,2.7209,2.721,2.721,2.721,2.7211,2.5127,2.5208,2.5375,2.5521,2.564,2.5766,2.5859,2.5984,2.6116,2.6294,2.6374,2.6529,2.669,2.6927,2.7028,2.7152,2.7172,2.7196,2.7202,2.7206,2.7199,2.7119,2.7183,2.7183,2.7183,2.7184,2.7184,0,2.5138,2.5252,2.5385,2.5574,2.569,2.5757,2.5912,2.6004,2.614,2.6283,2.6413,2.659,2.6741,2.69,2.7061,2.7129,2.7171,2.7167,2.7164,2.7187,2.7171,2.7141,2.7131,2.7131,2.7131,2.7131,2.7131,2.7131,2.5158,2.53,2.5389,2.5591,2.5705,2.5859,2.5943,2.606,2.6175,2.6369,2.6496,2.6599,2.675,2.6923,2.7065,2.7108,2.7162,2.7148,2.7202,2.7184,2.7187,2.7191,2.7164,2.7158,2.7159,2.7208,2.7208,2.7209]}]]